TimeCST,TemperatureF,Dew PointF,Humidity,Sea Level PressureIn,VisibilityMPH,Wind Direction,Wind SpeedMPH,Gust SpeedMPH,PrecipitationIn,Events,Conditions,WindDirDegrees,DateUTC
12:53 AM,48.9,43.0,80,30.04,10.0,NW,4.6,-,N/A,,Clear,310,2013-02-14 06:53:00
1:53 AM,48.0,42.1,80,30.01,10.0,NNW,8.1,-,N/A,,Clear,340,2013-02-14 07:53:00
2:53 AM,46.9,42.1,83,29.99,10.0,North,5.8,-,N/A,,Clear,10,2013-02-14 08:53:00
3:53 AM,46.0,42.1,86,30.02,10.0,NNW,8.1,-,N/A,,Clear,340,2013-02-14 09:53:00
4:53 AM,46.0,41.0,83,30.04,10.0,North,5.8,-,N/A,,Clear,350,2013-02-14 10:53:00
5:53 AM,45.0,39.9,82,30.05,10.0,North,9.2,-,N/A,,Clear,10,2013-02-14 11:53:00
6:53 AM,44.1,39.0,82,30.08,10.0,North,6.9,-,N/A,,Clear,360,2013-02-14 12:53:00
7:53 AM,45.0,39.0,80,30.12,10.0,NNE,3.5,-,N/A,,Clear,20,2013-02-14 13:53:00
8:53 AM,45.0,37.9,76,30.14,10.0,NNE,6.9,-,N/A,,Clear,20,2013-02-14 14:53:00
9:53 AM,45.0,37.9,76,30.12,10.0,North,6.9,-,N/A,,Clear,10,2013-02-14 15:53:00
10:53 AM,46.0,37.9,73,30.13,10.0,North,5.8,-,N/A,,Clear,350,2013-02-14 16:53:00
11:53 AM,46.9,37.9,71,30.12,10.0,North,4.6,-,N/A,,Clear,10,2013-02-14 17:53:00
12:53 PM,46.9,37.0,68,30.08,10.0,NNW,3.5,-,N/A,,Clear,340,2013-02-14 18:53:00
1:53 PM,48.9,37.9,66,30.05,10.0,NNW,5.8,-,N/A,,Clear,340,2013-02-14 19:53:00
2:53 PM,50.0,39.0,66,30.03,10.0,North,8.1,-,N/A,,Clear,10,2013-02-14 20:53:00
3:53 PM,50.0,39.0,66,30.06,10.0,Calm,Calm,-,N/A,,Clear,0,2013-02-14 21:53:00
4:53 PM,50.0,39.0,66,30.05,10.0,Calm,Calm,-,N/A,,Clear,0,2013-02-14 22:53:00
5:53 PM,46.9,39.9,77,30.08,10.0,Calm,Calm,-,N/A,,Clear,0,2013-02-14 23:53:00
6:53 PM,42.1,37.9,85,30.09,10.0,Calm,Calm,-,N/A,,Clear,0,2013-02-15 00:53:00
7:53 PM,41.0,37.9,89,30.09,10.0,Calm,Calm,-,N/A,,Clear,0,2013-02-15 01:53:00
8:53 PM,39.9,37.0,89,30.09,9.0,Calm,Calm,-,N/A,,Clear,0,2013-02-15 02:53:00
9:53 PM,37.9,36.0,93,30.10,9.0,Calm,Calm,-,N/A,,Clear,0,2013-02-15 03:53:00
10:53 PM,37.9,35.1,89,30.10,10.0,Calm,Calm,-,N/A,,Clear,0,2013-02-15 04:53:00
11:53 PM,37.0,35.1,93,30.09,9.0,Calm,Calm,-,N/A,,Clear,0,2013-02-15 05:53:00